Regional Weather Roundup
Issued by NWS

Home | Current Version | Previous Version | Text Only | Print | Product List | Glossary On
Versions: 1 2 3 4 5 6 7 8 9 10 11 12 13 14 15 16 17 18 19 20 21 22 23 24 25 26 27 28 29 30 31 32 33 34 35 36 37 38 39 40 41 42 43 44 45 46 47 48 49 50
000
ASUS44 KLUB 180110
RWRTX
WEST TEXAS WEATHER ROUNDUP
NATIONAL WEATHER SERVICE LUBBOCK TX
700 PM CST WED DEC 17 2014

NOTE: "FAIR" INDICATES FEW OR NO CLOUDS BELOW 12,000 FEET WITH NO
SIGNIFICANT WEATHER AND/OR OBSTRUCTIONS TO VISIBILITY.

TXZ004-006>008-010-012-014-016-OKZ002-180200-
TEXAS PANHANDLE/OKLAHOMA PANHANDLE

CITY           SKY/WX    TMP DP  RH WIND       PRES   REMARKS
AMARILLO       CLOUDY    36  35  96 SE18G25   29.97R FOG     WCI  26
BORGER         CLOUDY    38  34  85 S10       29.98S WCI  31
CANADIAN       CLOUDY    37  36  95 S8        30.04R WCI  31
DALHART        CLOUDY    41  32  70 SE9       29.92R
DUMAS          PTCLDY    35  32  89 SE13      29.93R WCI  26
GUYMON         LGT RAIN  39  35  86 SE9       29.96R WCI  33
HEREFORD       PTCLDY    42  36  79 SE8       29.96R
PAMPA          LGT RAIN  35  34  98 SE13      29.99F VSB 3/4 WCI  26
PERRYTON       CLOUDY    37  35  96 S13       30.00R WCI  28
$$

TXZ026-029-035-045-048-180200-
SOUTHERN PANHANDLE/SOUTH PLAINS/ROLLING PLAINS

CITY           SKY/WX    TMP DP  RH WIND       PRES   REMARKS
CHILDRESS      CLOUDY    40  38  93 SE9       30.06R FOG     WCI  34
SEMINOLE       CLEAR     53  29  39 W6        30.00R
LUBBOCK        PTCLDY    45  40  82 SE10      29.97R
PLAINVIEW      PTCLDY    40  35  80 SE8       29.97R WCI  35
SNYDER         CLEAR     46  42  85 E9        30.01R
$$

TXZ052-054-060>062-072-078-127-140-154-169-180200-
PERMIAN BASIN/CONCHO VALLEY/BIG COUNTRY/EDWARDS PLATEAU

CITY           SKY/WX    TMP DP  RH WIND       PRES   REMARKS
ABILENE        CLOUDY    50  42  74 SE12      30.05R
BIG SPRING     CLEAR     54  42  63 S9        30.02R
BROWNWOOD      CLOUDY    46  45  93 CALM      30.09R
JUNCTION       CLOUDY    51  51 100 N6        30.05R FOG
MIDLAND        CLEAR     57  29  34 W9        30.01R
ODESSA         CLEAR     59  27  29 W15       30.01R
SAN ANGELO     PTCLDY    54  49  83 S8        30.04R
SONORA         MOCLDY    54  52  94 CALM      30.11R FOG
SWEETWATER     CLEAR     46  43  90 SE8       30.05R
WINK           PTCLDY    57  26  30 W6        30.01R
$$

TXZ055-058-074-075-080-082-180200-
FAR WEST/SOUTHWEST MOUNTAINS/TRANS PECOS

CITY           SKY/WX    TMP DP  RH WIND       PRES   REMARKS
ALPINE         PTCLDY    51  26  37 W5        30.14R
DRYDEN           N/A     51  47  86 E5        30.05R
EL PASO        PTCLDY    55  33  43 W16       30.05R
FORT STOCKTON  PTCLDY    57  33  40 NW6       30.03R
MARFA          PTCLDY    48  27  43 SW3       30.11R
PECOS          PTCLDY    55  28  36 W5        30.02R
PRESIDIO       FAIR      60  34  37 N6        30.01R
$$

TXZ014-016-019-021>030-083-180200
TEXAS TECH WEST TEXAS MESONET/TEXAS PANHANDLE/NORTHERN SOUTH PLAINS

CITY           SKY/WX    TMP DP  RH WIND       PRES   REMARKS
ABERNATHY 5ENE   N/A     40  37  88 E8        29.99R WCI  35
AMARILLO 9NNE    N/A     36  35  94 SE17      29.95R WCI  26
AMARILLO 7SSE    N/A     36  35  95 SE10      29.98R WCI  28
AMHERST 1NE      N/A     44  35  70 E5        29.96R
BOOTLEG 11WNW    N/A     39  27  62 SW7       29.95S WCI  34
CANADIAN 6E      N/A     35  34  96 SE9       30.03R WCI  28
CAPROCK CYN SP   N/A     38  37  96 E7        30.02S WCI  33
CHILDRESS 2NNE   N/A     38  38  98 SE8       30.06R WCI  32
CLARENDON 2WSW   N/A     37  35  94 SE10      30.02S WCI  29
CLAUDE 12SW      N/A     35  35  99 SE7       29.99R WCI  29
DIMMITT 2NE      N/A     41  34  76 SE10      29.96R
FLOYDADA 2NNE    N/A     41  36  80 E8        29.99R
FRIONA 2NE       N/A     46  32  58 SW5       29.96R
GOODLETT 3W      N/A     39  38  94 SE9       30.06R WCI  33
HART 3N          N/A     38  34  84 SE7       29.98R WCI  33
HEREFORD 2NW     N/A     45  35  68 S7        29.95R
MCLEAN 1E        N/A     35  34  99 SE9       30.01S WCI  27
MEMPHIS 1NE      N/A     38  37  97 E8        30.06R WCI  32
MULESHOE 2SSW    N/A     41  30  65 S7        29.96R
OLTON 6S         N/A     42  34  75 SE7       29.97R
PALO DURO SP     N/A     36  34  94 SE10      29.99R WCI  28
PAMPA 2E         N/A     34  34  99 SE12      29.99S WCI  26
PLAINVIEW 1S     N/A     40  35  81 E7        29.98R WCI  35
SILVERTON 7ESE   N/A     37  36  96 E9        30.00F WCI  30
TULIA 2ENE       N/A     36  35  99 E13       29.98R WCI  27
TURKEY 2WSW      N/A     39  37  93 E8        30.03R WCI  34
UMBARGER 3NNE    N/A     35  33  90 SE9       29.97R WCI  28
$$

TXZ033>036-039>041-045>048-180200
TEXAS TECH WEST TEXAS MESONET/SOUTH PLAINS

CITY           SKY/WX    TMP DP  RH WIND       PRES   REMARKS
AIKEN 3WSW       N/A     38  34  85 E8        29.99R WCI  32
ANTON 6SSW       N/A     47  34  59 NW7       29.96R
BROWNFIELD 2S    N/A     50  28  42 SW8       29.97R
DENVR CTY 7WNW   N/A     51  27  38 SW15      29.97S
GAIL 2ESE        N/A     49  43  80 SE8       29.98R
LAMESA 2SE       N/A     50  31  48 W7        29.99R
LEVELLAND 4S     N/A     46  30  53 SW7       29.96R
LUBBOCK 3WNW     N/A     46  41  84 SE8       29.98R
MORTON 1ENE      N/A     46  31  54 SW6       29.96R
ODONNELL 1N      N/A     50  38  65 SE2       29.98R
PLAINS 3N        N/A     49  28  44 S8        29.98R
RALLS 1SE        N/A     45  41  86 SE10      30.00R
REESE CENTER     N/A     48  36  63 SE6       29.97R
SEAGRAVES 1SW    N/A     52  28  40 SW9       29.98R
SEMINOLE 2NNE    N/A     54  28  35 SW8       29.99R
SLATON 2NE       N/A     46  43  88 E7        29.99R
SNYDER 3E        N/A     45  41  87 E10       30.00R
SUNDOWN 8SW      N/A     49  30  47 SW10      29.97R
TAHOKA 3NNE      N/A     47  44  88 E7        29.98R
WOLFFORTH 6SSW   N/A     48  34  57 E5        29.98R
$$

TXZ031-032-036>038-042>044-180200-
TEXAS TECH WEST TEXAS MESONET/ROLLING PLAINS

CITY           SKY/WX    TMP DP  RH WIND       PRES   REMARKS
ASPERMONT 3NE    N/A     45  40  82 NE7       30.04R
FLUVANNA 3WNW    N/A     46  43  90 E9        29.99R
GRAHAM 5SSW      N/A     47  44  87 E7        29.99R
GUTHRIE 10WSW    N/A     41  37  86 E8        30.03R
HASKELL 1NW      N/A     43  38  85 E8        30.05R
JAYTON 1SSE      N/A     43  37  79 NE8       30.03R
KNOX CITY 3NW    N/A     42  38  84 E10       30.06S
LK A HENRY 1NW   N/A     46  43  88 E6        30.00R
NORTHFIELD 1S    N/A     39  38  95 E7        30.05R WCI  34
ODELL 4ENE       N/A     39  38  98 SE8       30.09S WCI  33
PADUCAH 10SW     N/A     39  37  91 E7        30.04R WCI  34
POST 1NE         N/A     44  42  94 NE3       30.00R
RRING SPRGS 3N   N/A     40  37  90 E9        30.02R WCI  33
SEYMOUR 3NW      N/A     41  39  94 E8        30.09R
SPUR 1W          N/A     43  36  75 E7        30.01R
WHITE RVR 6NE    N/A     45  37  72 E9        30.00R
$$

TXZ052-054-060>062-072-078-127-140-154-169-180200-
TEXAS TECH WEST TEXAS MESONET/PERMIAN BASIN/
CONCHO VALLEY/BIG COUNTRY/EDWARDS PLATEAU

CITY           SKY/WX    TMP DP  RH WIND       PRES   REMARKS
COYANOSA 2N      N/A     56  28  33 W7        30.03R
JUNCTION 1SSW    N/A     51  50  99 N3        30.06R
MERTZON 3NNE     N/A     51  46  86 S5        30.05R
SAN ANGELO 7NW   N/A     52  46  80 SE6       30.04R
STRLNG CT 4WSW   N/A     53  47  79 S9        30.03R
ST LAWRNCE 5SW   N/A     51  42  71 S10       30.02R
SWEETWATR 11SW   N/A     44  43  93 SE6       30.03R
WALL 1E          N/A     55  49  81 S6        30.05R
$$

TXZ055-058-074-075-080-082-180200-
TEXAS TECH WEST TEXAS MESONET/FAR WEST/SOUTHWEST MOUNTAINS/TRANS PECOS

CITY           SKY/WX    TMP DP  RH WIND       PRES   REMARKS
PRSMN GAP BBNP   N/A     59  42  53 N12       30.02R
$$


USA.gov is the U.S. government's official web portal to all federal, state and local government web resources and services.